Volver al catálogo

COSMOS 2251 DEB

LostLEO
NORAD 39550·DEBRIS·🇷🇺 Russia

Lanzado Jun 16, 1993 desde Plesetsk Cosmodrome

Loading…

Próximos Pases (próximas 24 horas)

TLE

ObsoletoSource: Space-Track

Época: Jun 5, 2023, 16:50 UTC

1 39550U 93036BUG 23156.70183765  .00013073  00000-0  29673-2 0  9990
2 39550  74.1010 171.8214 0104540   4.6667 317.2692 14.52715870536165

Sigue COSMOS 2251 DEB en tiempo real con AllMySat

Download on the App Store